CZ-4C R/B, 39014

Orbit data source: Space-Track

CZ-4C R/B, 39014 is space debris in LEO originally from a launch on Sun, 25 Nov 2012 UTC launched from the Jiuquan Satellite Launch Center, China (JSC). Debris objects in space refer to the collection of defunct objects orbiting the Earth. Examples of debris include non-operational satellites, rocket bodies, and fragments generated from explosions, collisions, or faulty payload assembly.

Loading next visibility...
Identifier
39014, 2012-066D
Orbit
LEO
Country
Flag of CNCN / PRC
Related business
Manufacturer
SAST
Mission
Spacecraft
Bus & Motor
CZ-4 STAGE 3, Unknown motor
Mass
~1,000 kg wet, ~1,000 kg dry
Launch date (UTC)
2012-11-25 (14 years ago)
Launch vehicle
Unknown
Launch site
Jiuquan Satellite Launch Center, China (JSC)
Object type
Payload
Rocket body
Debris
Shape & HBR
Cyl, 2.5 m
Radar Cross Section
20.385 m², Large (>1 m²)

Expand to show TLE details & history
Last TLE update: 2 days ago

TLE from 2 days ago
0 CZ-4C R/B
1 39014U 12066D   26171.40414034  .00000441  00000-0  15010-3 0  9998
2 39014  63.3842  70.7158 0625634  11.5109 349.9504 13.72064556678987
Epoch: 2026-06-20T09:41Z
TLE epoch observation values (Epoch: 2026-06-20T09:41:57.725Z)
Latitude
-0.00008°
Longitude
16.60599°
Altitude
540.848 km
Speed
7.822 km/s
True Right ascension
04h 42m 51s
True Declination
0° 00' 00"
Sunlit
Object was in daylight at epoch
Visualization orbit readout
Latitude
Unknown
Longitude
Unknown
Altitude
Unknown
Speed
Unknown
Apparent Right ascension
Unknown
Apparent Declination
Unknown
Sunlit
N/A
Visualization observer readout
Local Sidereal Time
00:39:54
Azimuth
Unknown
Elevation
Unknown
Doppler factor
Unknown
Orbital elements
Apogee altitude
1,452.014 km
Perigee altitude
529.94 km
Semi-major axis
7,369.114 km
Eccentricity
0.06256
Inclination
63.3842°
RAAN
70.7158°
Arg. of periapsis
11.5109°
True anomaly
348.5955°
Mean anomaly
349.9504°
Eccentric anomaly
349.28386°
Mean motion
3.431 °/min
Orbital period
104.93 mins
BSTAR
0.0001501
Loading maneuver chart data...
Computing Atmospheric mass density...
Loading historical data...
Loading historical data...
Loading historical data...
Loading historical data...
Loading historical data...
Loading historical data...
Loading historical data...

Documentation

Showing up to 5 results
|